Weather History for Marco Island Airport, FL

Change the Weather History Date:

Monday, January 20, 2014

  Actual Average (KAPF) Record (KAPF)
Temperature  
Mean Temperature 65 °F 64 °F  
Max Temperature 73 °F 75 °F 88 °F (1990)
Min Temperature 57 °F 54 °F 26 °F (1977)
Degree Days  
Heating Degree Days 0 3  
Month to date heating degree days 73  
Since 1 July heating degree days 151  
Cooling Degree Days 0 3  
Month to date cooling degree days 60  
Year to date cooling degree days 60  
Growing Degree Days 15 (Base 50)    
Moisture  
Dew Point 58 °F    
Average Humidity 78    
Maximum Humidity 100    
Minimum Humidity 57    
Precipitation  
Precipitation 0.00 in 0.06 in 2.46 in (1983)
Month to date precipitation 1.06  
Year to date precipitation 1.06  
Snow  
Snow 0.00 in - - ()
Month to date snowfall  
Since 1 July snowfall  
Snow Depth -    
Sea Level Pressure  
Sea Level Pressure 30.12 in    
Wind  
Wind Speed 4 mph (South)    
Max Wind Speed 9 mph    
Max Gust Speed -    
Visibility 10 miles    
Events      
T = Trace of Precipitation, MM = Missing Value Source: NWS Daily Summary

Daily Weather History Graph

Daily Weather History Graph

Search for Another Location

Airport:

Trip Planner

Search our weather history database for the weather conditions in past years. The results will help you decide how hot, cold, wet, or windy it might be!

Date:

Astronomy

Jan. 20, 2014 Rise Set
Actual Time 7:14 AM EST 6:01 PM EST
Civil Twilight 6:50 AM EST 6:25 PM EST
Nautical Twilight 6:22 AM EST 6:53 PM EST
Astronomical Twilight 5:54 AM EST 7:21 PM EST
Moon 10:03 PM EST (1/20) 9:41 AM EST (1/20)
Length of Visible Light 11h 35m
Length of Day
10h 46m
Waning Gibbous, 83% of the Moon is Illuminated
Jan 20
Waning Gibbous
Jan 24
Last Quarter
Jan 30
New
Feb 6
First Quarter
Feb 14
Full

Hourly Weather History & Observations

Time (EST) Temp. Dew Point Humidity Pressure Visibility Wind Dir Wind Speed Gust Speed Precip Events Conditions
12:15 AM 60.8 °F 57.2 °F 88% 30.16 in 10.0 mi South 5.8 mph - N/A   Scattered Clouds
12:35 AM 59.0 °F 57.2 °F 94% 30.15 in 10.0 mi South 5.8 mph - N/A   Mostly Cloudy
12:55 AM 60.8 °F 57.2 °F 88% 30.15 in 10.0 mi South 4.6 mph - N/A   Overcast
1:15 AM 60.8 °F 57.2 °F 88% 30.15 in 10.0 mi South 6.9 mph - N/A   Mostly Cloudy
1:35 AM 59.0 °F 57.2 °F 94% 30.15 in 10.0 mi South 3.5 mph - N/A   Mostly Cloudy
1:55 AM 59.0 °F 57.2 °F 94% 30.15 in 10.0 mi South 5.8 mph - N/A   Mostly Cloudy
2:15 AM 60.8 °F 57.2 °F 88% 30.14 in 10.0 mi SSW 3.5 mph - N/A   Overcast
2:35 AM 60.8 °F 57.2 °F 88% 30.14 in 10.0 mi SSW 5.8 mph - N/A   Overcast
2:55 AM 60.8 °F 57.2 °F 88% 30.13 in 10.0 mi SSW 4.6 mph - N/A   Overcast
3:15 AM 60.8 °F 57.2 °F 88% 30.13 in 10.0 mi SSW 3.5 mph - N/A   Overcast
3:35 AM 62.6 °F 57.2 °F 82% 30.13 in 10.0 mi SSW 4.6 mph - N/A   Overcast
3:55 AM 62.6 °F 57.2 °F 82% 30.13 in 10.0 mi SSW 4.6 mph - N/A   Mostly Cloudy
4:15 AM 60.8 °F 57.2 °F 88% 30.14 in 10.0 mi Calm Calm - N/A   Mostly Cloudy
4:35 AM 60.8 °F 57.2 °F 88% 30.13 in 10.0 mi Calm Calm - N/A   Mostly Cloudy
4:55 AM 60.8 °F 57.2 °F 88% 30.14 in 10.0 mi Calm Calm - N/A   Mostly Cloudy
5:15 AM 60.8 °F 57.2 °F 88% 30.14 in 10.0 mi Calm Calm - N/A   Overcast
5:35 AM 60.8 °F 57.2 °F 88% 30.14 in 10.0 mi Calm Calm - N/A   Overcast
5:55 AM 60.8 °F 57.2 °F 88% 30.15 in 10.0 mi Calm Calm - N/A   Overcast
6:15 AM 60.8 °F 57.2 °F 88% 30.15 in 10.0 mi Calm Calm - N/A   Overcast
6:35 AM 60.8 °F 57.2 °F 88% 30.15 in 10.0 mi NE 3.5 mph - N/A   Overcast
6:55 AM 60.8 °F 57.2 °F 88% 30.16 in 10.0 mi Calm Calm - N/A   Overcast
7:15 AM 60.8 °F 57.2 °F 88% 30.16 in 10.0 mi NNE 3.5 mph - N/A   Overcast
7:35 AM 60.8 °F 57.2 °F 88% 30.17 in 10.0 mi NE 4.6 mph - N/A   Mostly Cloudy
7:55 AM 57.2 °F 57.2 °F 100% 30.17 in 10.0 mi Calm Calm - N/A   Mostly Cloudy
8:15 AM 59.0 °F 57.2 °F 94% 30.17 in 10.0 mi Calm Calm - N/A   Scattered Clouds
8:35 AM 60.8 °F 57.2 °F 88% 30.18 in 8.0 mi Calm Calm - N/A   Clear
8:55 AM 62.6 °F 59.0 °F 88% 30.18 in 10.0 mi NE 3.5 mph - N/A   Partly Cloudy
9:15 AM 66.2 °F 57.2 °F 73% 30.19 in 10.0 mi NE 6.9 mph - N/A   Partly Cloudy
9:35 AM 66.2 °F 55.4 °F 68% 30.19 in 10.0 mi NE 5.8 mph - N/A   Clear
9:55 AM 68.0 °F 55.4 °F 64% 30.19 in 10.0 mi ENE 5.8 mph - N/A   Clear
10:15 AM 68.0 °F 57.2 °F 68% 30.19 in 10.0 mi NNE 5.8 mph - N/A   Partly Cloudy
10:35 AM 69.8 °F 57.2 °F 64% 30.19 in 10.0 mi Calm Calm - N/A   Mostly Cloudy
10:55 AM 69.8 °F 57.2 °F 64% 30.18 in 10.0 mi Calm Calm - N/A   Overcast
11:15 AM 71.6 °F 57.2 °F 60% 30.17 in 10.0 mi SSW 3.5 mph - N/A   Partly Cloudy
11:35 AM 71.6 °F 57.2 °F 60% 30.16 in 10.0 mi Calm Calm - N/A   Clear
11:55 AM 71.6 °F 57.2 °F 60% 30.15 in 10.0 mi NNW 3.5 mph - N/A   Mostly Cloudy
12:15 PM 71.6 °F 57.2 °F 60% 30.14 in 10.0 mi WSW 5.8 mph - N/A   Mostly Cloudy
12:35 PM 71.6 °F 57.2 °F 60% 30.13 in 10.0 mi WSW 8.1 mph - N/A   Overcast
12:55 PM 71.6 °F 59.0 °F 64% 30.12 in 10.0 mi West 4.6 mph - N/A   Overcast
1:15 PM 73.4 °F 57.2 °F 57% 30.10 in 10.0 mi WSW 5.8 mph - N/A   Overcast
1:35 PM 73.4 °F 57.2 °F 57% 30.09 in 10.0 mi SSW 5.8 mph - N/A   Overcast
1:55 PM 73.4 °F 57.2 °F 57% 30.08 in 10.0 mi SSW 4.6 mph - N/A   Mostly Cloudy
2:15 PM 73.4 °F 57.2 °F 57% 30.07 in 10.0 mi SSW 6.9 mph - N/A   Partly Cloudy
2:35 PM 73.4 °F 57.2 °F 57% 30.07 in 10.0 mi WSW 6.9 mph - N/A   Clear
2:55 PM 73.4 °F 57.2 °F 57% 30.07 in 10.0 mi SSW 8.1 mph - N/A   Clear
3:15 PM 73.4 °F 57.2 °F 57% 30.07 in 10.0 mi SSW 9.2 mph - N/A   Clear
3:35 PM 73.4 °F 57.2 °F 57% 30.07 in 10.0 mi SSW 8.1 mph - N/A   Clear
3:55 PM 73.4 °F 57.2 °F 57% 30.08 in 10.0 mi SW 6.9 mph - N/A   Clear
4:15 PM 73.4 °F 57.2 °F 57% 30.08 in 10.0 mi SSW 5.8 mph - N/A   Clear
4:35 PM 73.4 °F 57.2 °F 57% 30.08 in 10.0 mi SSW 4.6 mph - N/A   Clear
4:55 PM 71.6 °F 57.2 °F 60% 30.08 in 10.0 mi SW 3.5 mph - N/A   Clear
5:15 PM 71.6 °F 57.2 °F 60% 30.09 in 10.0 mi SSW 5.8 mph - N/A   Mostly Cloudy
5:35 PM 69.8 °F 59.0 °F 68% 30.09 in 10.0 mi South 4.6 mph - N/A   Overcast
5:55 PM 69.8 °F 57.2 °F 64% 30.08 in 10.0 mi South 3.5 mph - N/A   Overcast
6:15 PM 69.8 °F 59.0 °F 68% 30.08 in 10.0 mi SSE 5.8 mph - N/A   Overcast
6:35 PM 66.2 °F 59.0 °F 78% 30.09 in 10.0 mi South 3.5 mph - N/A   Mostly Cloudy
6:55 PM 66.2 °F 59.0 °F 78% 30.08 in 10.0 mi South 4.6 mph - N/A   Partly Cloudy
7:15 PM 64.4 °F 59.0 °F 83% 30.09 in 10.0 mi SSE 4.6 mph - N/A   Clear
7:35 PM 64.4 °F 59.0 °F 83% 30.08 in 10.0 mi SSE 5.8 mph - N/A   Mostly Cloudy
7:55 PM 64.4 °F 60.8 °F 88% 30.08 in 10.0 mi Calm Calm - N/A   Mostly Cloudy
8:15 PM 62.6 °F 59.0 °F 88% 30.09 in 10.0 mi South 3.5 mph - N/A   Partly Cloudy
8:35 PM 62.6 °F 60.8 °F 94% 30.09 in 10.0 mi South 5.8 mph - N/A   Clear
8:55 PM 62.6 °F 60.8 °F 94% 30.09 in 10.0 mi South 4.6 mph - N/A   Clear
9:15 PM 62.6 °F 59.0 °F 88% 30.09 in 8.0 mi SSE 3.5 mph - N/A   Scattered Clouds
9:35 PM 62.6 °F 60.8 °F 94% 30.09 in 10.0 mi South 4.6 mph - N/A   Partly Cloudy
9:55 PM 62.6 °F 60.8 °F 94% 30.09 in 10.0 mi South 5.8 mph - N/A   Clear
10:15 PM 62.6 °F 60.8 °F 94% 30.09 in 10.0 mi South 5.8 mph - N/A   Partly Cloudy
10:35 PM 62.6 °F 60.8 °F 94% 30.09 in 10.0 mi South 6.9 mph - N/A   Scattered Clouds
10:55 PM 64.4 °F 60.8 °F 88% 30.09 in 10.0 mi South 5.8 mph - N/A   Partly Cloudy
11:15 PM 64.4 °F 60.8 °F 88% 30.08 in 10.0 mi South 5.8 mph - N/A   Clear
11:35 PM 62.6 °F 60.8 °F 94% 30.07 in 10.0 mi South 5.8 mph - N/A   Clear
11:55 PM 62.6 °F 60.8 °F 94% 30.06 in 10.0 mi South 6.9 mph - N/A   Clear